Tracking 25410 objects as of 21-Jan-2022
HD Live streaming from Space Station
objects crossing your sky now

CLUSTER II-FM6

Track CLUSTER II-FM6 now!
CLUSTER II-FM6 is classified as:


NORAD ID: 26410
Int'l Code: 2000-041A
Perigee: 27,638.0 km
Apogee: 105,224.1 km
Inclination: 133.6 °
Period: 3,258.2 minutes
Semi major axis: 72802 km
RCS: 1.9953 m2 (large)
Launch date: July 16, 2000
Source: European Space Agency (ESA)
Launch site: TYURATAM MISSILE AND SPACE COMPLEX (TTMTR)
aabbcc
Your satellite tracking list
Your tracking list is empty




NASA's NSSDC Master Catalog

Two Line Element Set (TLE):
1 26410U 00041A   22021.85471767  .00000319  00000-0  00000-0 0  9993
2 26410 133.5716 346.3873 5328561 196.5453 359.1754  0.44196458 13175
Source of the keplerian elements: AFSPC